Location: Unspecified
(0.0000°N, 0.0000°E)
Time: 19:07:24
(UTC+00:00)

Intasat - Visible Passes

Search period start: 16 October 2019 00:00
Search period end: 26 October 2019 00:00
Orbit: 1441 x 1459 km, 101.8° (Epoch: 16 October)

Date Brightness Start Highest point End Pass type
(mag) Time Alt. Az. Time Alt. Az. Time Alt. Az.
16 Oct ? 02:44:44 10° NNE 02:52:42 52° ESE 03:00:41 10° S visible
16 Oct ? 04:39:22 10° NNW 04:45:04 21° WNW 04:50:49 10° WSW visible
17 Oct ? 01:48:43 10° ENE 01:53:17 16° ESE 01:57:49 10° SE visible
17 Oct ? 03:37:26 10° N 03:45:36 64° WNW 03:53:48 10° SSW visible
18 Oct ? 02:38:16 10° NE 02:46:04 46° ESE 02:53:53 10° S visible
18 Oct ? 04:32:15 10° NNW 04:38:27 24° WNW 04:44:42 10° WSW visible
19 Oct ? 01:43:04 10° E 01:46:40 13° ESE 01:50:16 10° SE visible
19 Oct ? 03:30:43 10° N 03:38:57 72° WNW 03:47:15 10° SSW visible
20 Oct ? 02:31:51 10° NE 02:39:26 40° ESE 02:47:03 10° S visible
20 Oct ? 04:25:12 10° NNW 04:31:50 27° WNW 04:38:30 10° SW visible
21 Oct ? 01:37:54 10° E 01:40:04 11° ESE 01:42:14 10° ESE visible
21 Oct ? 03:24:01 10° NNE 03:32:19 81° WNW 03:40:40 10° SSW visible
22 Oct ? 02:25:27 10° NE 02:32:48 36° ESE 02:40:10 10° S visible
22 Oct ? 04:18:13 10° NNW 04:25:11 31° WNW 04:32:14 10° SW visible
23 Oct ? 03:17:22 10° NNE 03:25:41 89° WNW 03:34:02 10° SSW visible
24 Oct ? 02:19:07 10° NE 02:26:11 31° ESE 02:33:15 10° SSE visible
24 Oct ? 04:11:17 10° NNW 04:18:34 35° WNW 04:25:55 10° SW visible
25 Oct ? 03:10:44 10° NNE 03:19:02 82° ESE 03:27:24 10° SSW visible
25 Oct ? 05:09:28 10° WNW 05:11:19 11° WNW 05:13:11 10° W visible
